Burlington, CO

6:02 AM MST on February 19, 2017 (GMT -0700)
Kit Carson County

Weather History for KITR - January, 2013

Change the Weather History Date:

Sunday, January 20, 2013

  Actual Average Record
Temperature  
Mean Temperature 30 °F 30 °F  
Max Temperature 50 °F 42 °F 73 °F (1971)
Min Temperature 9 °F 17 °F -14 °F (1962)
Degree Days  
Heating Degree Days 35    
Moisture  
Dew Point 14 °F    
Average Humidity 61    
Maximum Humidity 88    
Minimum Humidity 24    
Precipitation  
Precipitation 0.00 in 0.01 in 0.39 in (1958)
Month to date precipitation T 0.18  
Year to date precipitation T 0.18  
Sea Level Pressure  
Sea Level Pressure 30.26 in    
Wind  
Wind Speed 13 mph (NNE)    
Max Wind Speed 30 mph    
Max Gust Speed 41 mph    
Visibility 10 miles    
Events      
T = Trace of Precipitation, MM = Missing Value Source: NWS Daily Summary

Daily Weather History Graph

Daily Weather History Graph

Search for Another Location

Airport or City:

Trip Planner

Search our weather history database for the weather conditions in past years. The results will help you decide how hot, cold, wet, or windy it might be!

Date:

Astronomy

Jan. 20, 2013 Rise Set
Actual Time 7:04 AM MST 4:56 PM MST
Civil Twilight 6:35 AM MST 5:25 PM MST
Nautical Twilight 6:02 AM MST 5:58 PM MST
Astronomical Twilight 5:31 AM MST 6:29 PM MST
Moon 11:58 AM MST (1/20) 1:39 AM MST (1/20)
Length of Visible Light 10h 49m
Length of Day
9h 51m
Waxing Gibbous, 67% of the Moon is Illuminated
Jan 20
Waxing Gibbous
Jan 26
Full
Feb 3
Last Quarter
Feb 10
New
Feb 17
First Quarter

Hourly Weather History & Observations

Time (MST) Temp. Windchill Dew Point Humidity Pressure Visibility Wind Dir Wind Speed Gust Speed Precip Events Conditions
12:53 AM 26.1 °F 14.0 °F 12.0 °F 55% 30.16 in 10.0 mi South 15.0 mph - N/A   Clear
1:53 AM 25.0 °F 14.2 °F 12.0 °F 58% 30.15 in 10.0 mi South 11.5 mph - N/A   Clear
2:53 AM 27.0 °F 16.7 °F 12.9 °F 56% 30.13 in 10.0 mi South 11.5 mph - N/A   Clear
3:53 AM 23.0 °F - 12.0 °F 63% 30.13 in 10.0 mi Calm Calm - N/A   Clear
4:53 AM 19.0 °F 11.1 °F 10.9 °F 71% 30.16 in 10.0 mi SSE 5.8 mph - N/A   Clear
5:53 AM 16.0 °F 7.4 °F 9.0 °F 74% 30.19 in 10.0 mi West 5.8 mph - N/A   Clear
6:53 AM 12.9 °F 0.7 °F 7.0 °F 77% 30.24 in 10.0 mi West 9.2 mph - N/A   Clear
7:53 AM 24.1 °F 12.0 °F 12.0 °F 60% 30.24 in 10.0 mi NW 13.8 mph - N/A   Clear
8:53 AM 33.1 °F 22.6 °F 17.1 °F 52% 30.23 in 10.0 mi NNW 16.1 mph - N/A   Clear
9:53 AM 39.9 °F 30.2 °F 17.1 °F 40% 30.23 in 10.0 mi North 20.7 mph 27.6 mph N/A   Clear
10:53 AM 46.9 °F - 12.9 °F 25% 30.21 in 10.0 mi North 29.9 mph 41.4 mph N/A   Clear
11:53 AM 48.0 °F - 12.9 °F 24% 30.21 in 10.0 mi North 25.3 mph 40.3 mph N/A   Clear
12:53 PM 46.9 °F - 14.0 °F 27% 30.20 in 10.0 mi North 25.3 mph 32.2 mph N/A   Clear
1:53 PM 43.0 °F 33.1 °F 18.0 °F 37% 30.23 in 10.0 mi NNE 26.5 mph 32.2 mph N/A   Clear
2:53 PM 41.0 °F 31.1 °F 21.9 °F 47% 30.24 in 10.0 mi NNE 23.0 mph 27.6 mph N/A   Clear
3:53 PM 37.0 °F 27.0 °F 21.0 °F 52% 30.28 in 10.0 mi NE 18.4 mph - N/A   Clear
4:53 PM 30.9 °F 22.8 °F 19.0 °F 61% 30.35 in 10.0 mi NE 9.2 mph - N/A   Clear
5:53 PM 24.1 °F 15.2 °F 16.0 °F 71% 30.42 in 10.0 mi NNE 8.1 mph - N/A   Clear
6:53 PM 21.9 °F 11.0 °F 16.0 °F 78% 30.44 in 10.0 mi NNE 10.4 mph - N/A   Clear
7:53 PM 19.0 °F 11.1 °F 14.0 °F 81% 30.42 in 10.0 mi ENE 5.8 mph - N/A   Clear
8:53 PM 14.0 °F - 10.9 °F 88% 30.40 in 10.0 mi Calm Calm - N/A   Clear
9:53 PM 17.1 °F 11.7 °F 12.9 °F 84% 30.37 in 10.0 mi East 3.5 mph - N/A   Clear
10:53 PM 12.0 °F 5.9 °F 9.0 °F 88% 30.35 in 10.0 mi South 3.5 mph - N/A   Clear
11:53 PM 9.0 °F -0.9 °F 6.1 °F 88% 30.34 in 10.0 mi WSW 5.8 mph - N/A   Clear